Powrót do katalogu

SL-14 DEB

AktywnyPO
NORAD 20308·DEBRIS·🇷🇺 Russia

Wystrzelony Sep 28, 1989 z Plesetsk Cosmodrome

Loading…

Następne Przeloty (najbliższe 24 godziny)

TLE

ŚwieżeSource: Space-Track

Epoka: Sep 14, 2026, 11:09 UTC

1 20308U 89080G   26257.46472713  .00001902  00000-0  55675-3 0  9997
2 20308  82.6916 349.1160 0876781  86.6374 283.4531 13.20013333731031

Śledź SL-14 DEB w czasie rzeczywistym z AllMySat

Download on the App Store